{"data":{"norad_id":66233,"intl_designator":"2025-244AD","name":"STARLINK-35626","alt_names":[],"object_type":"PAYLOAD","status":"ACTIVE","operator":null,"country":"US","launch_date":"2025-10-28","launch_site_code":"AFWTR","launch_vehicle":null,"mission":null,"orbit_class":"UNKNOWN","rcs_meters":null,"size_class":null,"mass_kg":null,"dimensions":null,"purposes":["comms"],"wikipedia_slug":null,"has_3d_model":false,"image_url":null,"decayed_at":null,"tle_current":{"epoch":"2026-05-25T05:29:05.892288Z","epoch_age_seconds":62219,"freshness":"FRESH","line1":"1 66233U 25244AD  26145.22854042  .00016025  00000+0  55179-3 0  9995","line2":"2 66233  53.1590 234.6960 0001039  92.4444 267.6676 15.30212806 33379","mean_motion":15.30212806,"eccentricity":0.0001039,"inclination_deg":53.159,"raan_deg":234.696,"arg_perigee_deg":92.4444,"mean_anomaly_deg":267.6676,"bstar":0.00055179,"rev_number":3337,"period_min":94.10455816039,"perigee_km":474.464773971,"apogee_km":475.88889258556,"semimajor_km":6853.3138332783,"source":"CELESTRAK","updated_at":"2026-05-25T13:38:21.132851Z"}}}